sat.trackr.live / text

‹ back to catalog

ONEWEB-0345

NORAD 49211 · 2021-083AB

PAYLOAD ACTIVE UNKNOWN

§ Identity

Operator
Country
UK
Launch date
2021-09-14
Launch site
TYMSC
Launch vehicle
Mass (kg)
RCS (m²)

Purposes: comms

External: N2YO · Heavens-Above · Gunter

§ Orbital elements

Epoch: 2026-09-19T19:12:12.528000Z

Period
109.63 min
Inclination
87.8921°
Eccentricity
0.0001567
Mean motion
13.13469285 rev/d
Perigee alt
1,208.6 km
Apogee alt
1,211.0 km
Semi-major
7,587.9 km
B*
1.0980e-3
RAAN
301.4008°
Arg perigee
101.2071°
Mean anomaly
258.9234°
Rev number
24,332

§ Raw data

ONEWEB-03451 49211U 21083AB  26262.80014500  .00000414  00000+0  10980-2 0  99952 49211  87.8921 301.4008 0001567 101.2071 258.9234 13.13469285243320

JSON: /api/v1/satellites/49211 · /tle

For live sub-satellite position, see the globe view (requires WebGL).

§ Visibility from observer

Set your observer location to see the next 7 days of passes ≥ 10°. The values pass through the URL so the page stays shareable.

No JS? Fill the form by hand. The geolocation button needs JavaScript.